Chicago, IL

4:40 AM CST on February 25, 2017 (GMT -0600)
Chicago-Midway

Weather History for KMDW - January, 2014

Change the Weather History Date:

Thursday, January 2, 2014

  Actual Average Record
Temperature  
Mean Temperature 14 °F 26 °F  
Max Temperature 22 °F 32 °F 61 °F (2000)
Min Temperature 5 °F 19 °F -13 °F (1979)
Degree Days  
Heating Degree Days 51 40  
Month to date heating degree days 97 79  
Since 1 July heating degree days 2538 2330  
Cooling Degree Days 0 0  
Month to date cooling degree days 0 0  
Year to date cooling degree days 0 0  
Moisture  
Dew Point 12 °F    
Average Humidity 78    
Maximum Humidity 93    
Minimum Humidity 57    
Precipitation  
Precipitation 0.01 in 0.08 in 1.22 in (1951)
Month to date precipitation 0.16  
Year to date precipitation 0.16  
Snow  
Snow 0.00 in - - ()
Snow Depth 10.00 in    
Sea Level Pressure  
Sea Level Pressure 30.24 in    
Wind  
Wind Speed 15 mph (North)    
Max Wind Speed 23 mph    
Max Gust Speed 31 mph    
Visibility 4 miles    
Events Fog , Snow    
T = Trace of Precipitation, MM = Missing Value Source: NWS Daily Summary

Daily Weather History Graph

Daily Weather History Graph

Search for Another Location

Airport or City:

Trip Planner

Search our weather history database for the weather conditions in past years. The results will help you decide how hot, cold, wet, or windy it might be!

Date:

Astronomy

Jan. 02, 2014 Rise Set
Actual Time 7:18 AM CST 4:31 PM CST
Civil Twilight 6:47 AM CST 5:03 PM CST
Nautical Twilight 6:12 AM CST 5:38 PM CST
Astronomical Twilight 5:38 AM CST 6:12 PM CST
Moon 7:57 AM CST (1/2) 6:30 PM CST (1/2)
Length of Visible Light 10h 16m
Length of Day
9h 13m
Waxing Crescent, 3% of the Moon is Illuminated
Jan 2
Waxing Crescent
Jan 7
First Quarter
Jan 15
Full
Jan 23
Last Quarter
Jan 30
New

Hourly Weather History & Observations

Time (CST) Temp. Windchill Dew Point Humidity Pressure Visibility Wind Dir Wind Speed Gust Speed Precip Events Conditions
12:51 AM 21.0 °F 7.6 °F 16.0 °F 81% 30.18 in 7.0 mi ENE 15.0 mph - 0.00 in Snow Light Snow
1:12 AM 21.2 °F 6.0 °F 15.8 °F 80% 30.13 in 10.0 mi ENE 19.6 mph - 0.00 in Snow Light Snow
1:51 AM 21.0 °F 7.1 °F 16.0 °F 81% 30.18 in 10.0 mi ENE 16.1 mph - 0.00 in Snow Light Snow
2:51 AM 21.0 °F 7.6 °F 16.0 °F 81% 30.17 in 10.0 mi NE 15.0 mph - 0.00 in Snow Light Snow
3:51 AM 21.9 °F 8.7 °F 17.1 °F 82% 30.15 in 3.0 mi NE 15.0 mph - 0.00 in Snow Light Snow
3:58 AM 21.2 °F 8.3 °F 17.6 °F 86% 30.09 in 1.8 mi NE 13.8 mph - 0.00 in Snow Light Snow
4:51 AM 21.9 °F 10.4 °F 18.0 °F 85% 30.14 in 1.0 mi NE 11.5 mph - 0.00 in Snow Light Snow
5:21 AM 21.2 °F 8.3 °F 17.6 °F 86% 30.10 in 1.0 mi NE 13.8 mph 20.7 mph 0.00 in Snow Light Snow
5:51 AM 21.9 °F 9.2 °F 18.0 °F 85% 30.16 in 1.0 mi NE 13.8 mph - 0.00 in Snow Light Snow
6:51 AM 21.0 °F 9.3 °F 17.1 °F 85% 30.18 in 1.0 mi NE 11.5 mph - 0.00 in Snow Light Snow
7:39 AM 19.4 °F 6.0 °F 17.6 °F 93% 30.13 in 0.8 mi NE 13.8 mph - 0.00 in Snow Light Snow
7:51 AM 19.9 °F 6.7 °F 17.1 °F 89% 30.19 in 0.8 mi NE 13.8 mph - 0.00 in Snow Light Snow
8:03 AM 19.4 °F 6.0 °F 17.6 °F 93% 30.13 in 0.5 mi NE 13.8 mph - 0.00 in Fog , Snow Snow
8:51 AM 19.9 °F 5.7 °F 17.1 °F 89% 30.21 in 0.5 mi NNE 16.1 mph - 0.01 in Fog , Snow Snow
9:37 AM 19.4 °F 5.5 °F 15.8 °F 86% 30.18 in 0.8 mi NNE 15.0 mph 23.0 mph 0.00 in Snow Light Snow
9:51 AM 19.0 °F 3.6 °F 15.1 °F 85% 30.24 in 0.8 mi NE 18.4 mph - 0.00 in Snow Light Snow
10:27 AM 19.4 °F 3.6 °F 14.0 °F 80% 30.19 in 1.5 mi NNE 19.6 mph 25.3 mph 0.00 in Snow Light Snow
10:38 AM 19.4 °F 5.0 °F 12.2 °F 74% 30.19 in 2.5 mi NE 16.1 mph - 0.00 in Snow Light Snow
10:51 AM 19.0 °F 4.5 °F 12.9 °F 77% 30.25 in 2.0 mi NE 16.1 mph - 0.00 in Snow Light Snow
11:13 AM 19.4 °F 4.5 °F 12.2 °F 74% 30.18 in 1.5 mi NNE 17.3 mph 27.6 mph 0.00 in Snow Light Snow
11:34 AM 19.4 °F 4.1 °F 12.2 °F 74% 30.18 in 2.0 mi NE 18.4 mph 24.2 mph 0.00 in Snow Light Snow
11:43 AM 19.4 °F 2.8 °F 12.2 °F 74% 30.18 in 3.0 mi NNE 21.9 mph 26.5 mph 0.00 in Snow Light Snow
11:51 AM 19.0 °F 2.7 °F 12.0 °F 74% 30.23 in 4.0 mi NNE 20.7 mph 28.8 mph 0.00 in Snow Light Snow
12:16 PM 19.4 °F 3.6 °F 10.4 °F 68% 30.18 in 6.0 mi NNE 19.6 mph 27.6 mph 0.00 in Snow Light Snow
12:46 PM 19.4 °F 5.0 °F 12.2 °F 74% 30.18 in 1.0 mi NNE 16.1 mph 25.3 mph 0.00 in Snow Light Snow
12:47 PM 19.9 °F 6.2 °F 12.9 °F 74% 30.24 in 1.0 mi NNE 15.0 mph 25.3 mph 0.00 in Snow Light Snow
12:55 PM 19.4 °F 4.1 °F 14.0 °F 80% 30.19 in 0.8 mi NNE 18.4 mph 23.0 mph 0.00 in Snow Light Snow
1:04 PM 19.4 °F 6.6 °F 15.8 °F 86% 30.19 in 1.0 mi NNE 12.7 mph 24.2 mph 0.00 in Snow Light Snow
1:11 PM 19.4 °F 4.5 °F 12.2 °F 74% 30.19 in 3.0 mi NNE 17.3 mph 23.0 mph 0.00 in Snow Light Snow
1:32 PM 19.4 °F 6.6 °F 12.2 °F 74% 30.19 in 1.0 mi NNW 12.7 mph 24.2 mph 0.00 in Snow Light Snow
1:47 PM 17.6 °F 3.7 °F 14.0 °F 86% 30.20 in 0.8 mi NNW 13.8 mph - 0.00 in Snow Light Snow
1:51 PM 18.0 °F 4.2 °F 14.0 °F 84% 30.25 in 0.8 mi NNW 13.8 mph - 0.00 in Snow Light Snow
1:55 PM 17.6 °F 4.3 °F 14.0 °F 86% 30.20 in 0.5 mi NNW 12.7 mph - 0.00 in Snow Snow
2:51 PM 17.1 °F 3.0 °F 12.9 °F 84% 30.28 in 0.5 mi NNW 13.8 mph - 0.00 in Snow Snow
3:20 PM 17.6 °F 3.7 °F 14.0 °F 86% 30.24 in 0.8 mi NNW 13.8 mph - 0.00 in Snow Light Snow
3:31 PM 17.6 °F 4.3 °F 12.2 °F 79% 30.25 in 0.5 mi NNW 12.7 mph - 0.00 in Snow Snow
3:43 PM 17.6 °F 3.7 °F 12.2 °F 79% 30.25 in 2.0 mi NNW 13.8 mph - 0.00 in Snow Light Snow
3:51 PM 17.1 °F 2.5 °F 12.0 °F 81% 30.31 in 7.0 mi NW 15.0 mph - 0.00 in   Mostly Cloudy
4:09 PM 17.6 °F 2.7 °F 12.2 °F 79% 30.27 in 1.0 mi NNW 16.1 mph - 0.00 in Snow Light Snow
4:16 PM 17.6 °F 1.7 °F 12.2 °F 79% 30.27 in 10.0 mi NNW 18.4 mph - 0.00 in   Mostly Cloudy
4:45 PM 15.8 °F 1.4 °F 8.6 °F 73% 30.29 in 10.0 mi NW 13.8 mph - 0.00 in   Mostly Cloudy
4:51 PM 16.0 °F 1.1 °F 8.1 °F 71% 30.35 in 10.0 mi NNW 15.0 mph - 0.00 in   Mostly Cloudy
5:51 PM 14.0 °F -0.8 °F 6.1 °F 71% 30.38 in 10.0 mi NW 13.8 mph - N/A   Partly Cloudy
6:51 PM 10.9 °F -6.5 °F 1.9 °F 67% 30.40 in 10.0 mi NNW 17.3 mph - N/A   Clear
7:51 PM 9.0 °F -8.5 °F 1.0 °F 70% 30.42 in 10.0 mi NNW 16.1 mph - N/A   Clear
8:51 PM 7.0 °F -9.1 °F -0.9 °F 70% 30.43 in 10.0 mi NW 12.7 mph - N/A   Clear
9:51 PM 7.0 °F -7.5 °F -2.0 °F 67% 30.44 in 10.0 mi NNW 10.4 mph - N/A   Clear
10:51 PM 6.1 °F -9.5 °F -2.9 °F 67% 30.46 in 10.0 mi NW 11.5 mph - N/A   Clear
11:51 PM 5.0 °F -10.0 °F -4.0 °F 66% 30.46 in 10.0 mi NNW 10.4 mph - N/A   Clear